DateTimeUTC,F1_A11,F1_S11,BsB_S11,BsG_S11,BsR_S11,BbsB_S11,BbsG_S11,BbsR_S11,BaB_A11,BaG_A11,BaR_A11,Tu_S11,T_S11,Uu_S11,U_S11,P_S11,T1_A11
2021-08-03T14:00:00Z,00000200,20000000,,,,,,,0000.22,0000.15,-000.01,20.8,26.8,04.3,03.0,0672.1,31.2
2021-08-03T14:01:00Z,00000200,20000000,,,,,,,-000.13,-000.03,0000.07,20.9,26.8,04.3,03.0,0672.1,31.2
2021-08-03T14:02:00Z,00000200,20000000,,,,,,,0000.27,-000.22,-000.06,20.9,26.8,04.3,03.0,0672.1,31.2
2021-08-03T14:03:00Z,00000200,60000000,,,,,,,0001.35,0001.41,0001.34,20.9,26.9,04.3,03.0,0672.1,31.2
2021-08-03T14:04:00Z,00000200,40010000,0009.35,0006.60,0004.13,0000.65,0000.80,0001.01,0001.80,0001.53,0000.94,20.9,26.8,04.6,03.2,0673.1,31.2
2021-08-03T14:05:00Z,00000200,00000000,0008.81,0006.71,0003.71,0000.90,0000.96,0000.83,0001.80,0001.97,0001.20,21.0,26.8,04.6,03.3,0673.1,31.2
2021-08-03T14:06:00Z,00000200,00000000,0009.03,0006.26,0003.97,0001.43,0000.62,0000.68,0001.94,0001.64,0001.51,21.0,26.7,04.7,03.3,0673.1,31.2
2021-08-03T14:07:00Z,00000200,00000000,0009.17,0006.22,0003.56,0001.11,0000.95,0000.57,0001.61,0001.53,0001.04,21.0,26.8,04.6,03.3,0673.1,31.2
2021-08-03T14:08:00Z,00000200,00000000,0008.36,0006.64,0003.74,0001.29,0000.71,0000.61,0002.08,0001.64,0001.49,21.0,26.8,04.7,03.3,0673.1,31.2
2021-08-03T14:09:00Z,00000200,00000000,0009.83,0006.32,0003.67,0001.37,0000.56,0000.30,0001.87,0001.92,0001.28,21.1,26.8,04.7,03.3,0673.1,31.2
2021-08-03T14:10:00Z,00000200,00000000,0008.98,0006.17,0003.63,0001.38,0000.60,0000.78,0001.89,0001.61,0001.55,21.1,26.8,04.7,03.3,0673.2,31.2
2021-08-03T14:11:00Z,00000200,00000000,0008.23,0006.52,0003.77,0000.33,0001.07,0000.25,0001.97,0001.81,0001.39,21.1,26.8,04.8,03.4,0673.2,31.2
2021-08-03T14:12:00Z,00000200,00000000,0008.58,0006.21,0003.87,0001.30,0000.53,0000.40,0001.81,0001.79,0001.09,21.0,26.8,04.7,03.3,0673.2,31.2
2021-08-03T14:13:00Z,00000200,00000000,0008.68,0005.97,0003.58,0000.89,0001.01,0000.58,0001.74,0001.54,0001.24,21.1,26.8,04.8,03.4,0673.2,31.2
2021-08-03T14:14:00Z,00000200,00000000,0008.61,0006.32,0003.47,0001.16,0000.33,0000.67,0002.17,0001.67,0001.27,21.1,26.8,04.7,03.4,0673.2,31.2
2021-08-03T14:15:00Z,00000200,00000000,0008.30,0006.33,0003.86,0001.46,0000.78,0000.81,0001.70,0001.85,0001.38,21.1,26.8,04.7,03.3,0673.2,31.2
2021-08-03T14:16:00Z,00000200,00000000,0009.34,0006.11,0003.56,0000.84,0000.73,0000.55,0001.87,0001.57,0001.32,21.1,26.8,04.8,03.4,0673.2,31.2
2021-08-03T14:17:00Z,00000200,00000000,0008.55,0006.42,0003.67,0000.64,0000.41,0000.75,0002.02,0001.91,0001.42,21.2,26.8,04.8,03.4,0673.2,31.2
2021-08-03T14:18:00Z,00000200,00000000,0008.57,0006.30,0003.61,0001.02,0000.73,0000.18,0001.61,0001.53,0001.36,21.2,26.8,04.8,03.4,0673.2,31.2
2021-08-03T14:19:00Z,00000200,00000000,0008.01,0006.22,0003.65,0001.30,0000.93,0000.65,0001.80,0001.93,0001.29,21.2,26.8,04.7,03.4,0673.2,31.2
2021-08-03T14:20:00Z,00000200,00000000,0008.49,0006.31,0003.55,0000.74,0000.74,0000.63,0001.99,0001.51,0001.43,21.2,26.9,04.8,03.4,0673.2,31.2
2021-08-03T14:21:00Z,00000200,00000000,0008.75,0006.05,0003.62,0001.04,0000.90,0000.90,0001.95,0001.30,0000.69,21.2,26.9,04.9,03.5,0673.2,31.2
2021-08-03T14:22:00Z,00000200,00000000,0008.60,0005.63,0003.45,0001.12,0000.97,0000.48,0001.97,0001.98,0001.77,21.2,26.9,04.9,03.5,0673.2,31.2
2021-08-03T14:23:00Z,00000200,00000000,0008.82,0006.26,0003.39,0000.96,0000.86,0000.51,0001.56,0001.74,0000.87,21.2,26.9,04.9,03.5,0673.2,31.2
2021-08-03T14:24:00Z,00000200,00000000,0008.60,0006.00,0003.53,0000.79,0000.84,0000.67,0001.77,0001.30,0001.29,21.2,26.9,04.8,03.5,0673.2,31.2
2021-08-03T14:25:00Z,00000200,00000000,0008.46,0006.36,0003.69,0001.24,0000.95,0000.42,0001.96,0001.97,0001.47,21.2,26.9,04.9,03.5,0673.2,31.2
2021-08-03T14:26:00Z,00000200,00000000,0008.52,0005.82,0003.38,0001.03,0000.90,0000.59,0001.29,0001.41,0000.81,21.2,26.9,04.8,03.4,0673.2,31.2
2021-08-03T14:27:00Z,00000200,00000000,0007.76,0005.95,0003.69,0001.44,0000.72,0000.66,0002.04,0001.67,0001.52,21.2,26.9,04.8,03.4,0673.2,31.2
2021-08-03T14:28:00Z,00000200,00000000,0008.02,0005.58,0003.56,0000.64,0000.92,0000.92,0001.46,0001.31,0001.09,21.2,26.9,04.8,03.5,0673.2,31.2
2021-08-03T14:29:00Z,00000200,00000000,0009.34,0006.10,0003.37,0000.72,0000.62,0000.54,0002.17,0001.69,0001.38,21.3,26.9,05.0,03.5,0673.2,31.2
2021-08-03T14:30:00Z,00000200,00000000,0008.30,0005.75,0003.20,0001.14,0000.86,0000.53,0001.63,0001.72,0001.00,21.3,26.9,04.9,03.5,0673.1,31.2
2021-08-03T14:31:00Z,00000200,00000000,0008.67,0005.79,0003.33,0000.56,0000.85,0000.41,0001.34,0001.56,0001.09,21.3,26.9,04.9,03.5,0673.1,31.2
2021-08-03T14:32:00Z,00000200,00000000,0007.88,0005.76,0003.56,0001.26,0000.40,0000.57,0002.04,0001.74,0001.53,21.3,26.9,05.0,03.6,0673.1,31.2
2021-08-03T14:33:00Z,00000200,00000000,0007.37,0005.73,0003.31,0001.07,0000.77,0000.57,0001.85,0001.63,0001.44,21.3,27.0,05.1,03.6,0673.1,31.2
2021-08-03T14:34:00Z,00000200,00000000,0007.35,0005.82,0003.28,0001.23,0000.77,0000.55,0001.96,0001.52,0001.23,21.3,27.0,05.0,03.6,0673.1,31.2
2021-08-03T14:35:00Z,00000200,00000000,0007.87,0005.80,0003.34,0000.99,0000.63,0000.29,0001.79,0001.64,0000.90,21.3,27.0,05.1,03.6,0673.1,31.2
2021-08-03T14:36:00Z,00000200,00000000,0007.44,0005.40,0003.41,0001.13,0001.05,0000.82,0001.51,0001.51,0001.30,21.3,27.0,05.0,03.6,0673.1,31.2
2021-08-03T14:37:00Z,00000200,00000000,0007.85,0005.10,0003.29,0001.44,0000.63,0000.35,0001.89,0001.64,0001.49,21.3,27.0,05.1,03.6,0673.2,31.2
2021-08-03T14:38:00Z,00000200,00000000,0007.54,0005.57,0003.09,0000.69,0000.68,0000.49,0001.23,0001.52,0000.98,21.3,27.0,05.2,03.7,0673.1,31.2
2021-08-03T14:39:00Z,00000200,00000000,0007.61,0005.14,0003.15,0001.01,0000.38,0000.95,0001.76,0001.03,0000.67,21.4,27.0,05.1,03.6,0673.1,31.3
2021-08-03T14:40:00Z,00000200,00000000,0007.56,0005.08,0002.83,0000.85,0000.78,0000.67,0001.22,0001.48,0001.37,21.4,27.0,05.1,03.6,0673.1,31.3
2021-08-03T14:41:00Z,00000200,00000000,0007.26,0005.41,0003.03,0000.94,0000.83,0000.62,0001.68,0001.86,0001.36,21.4,27.0,05.0,03.5,0673.2,31.3
2021-08-03T14:42:00Z,00000200,00000000,0007.36,0005.28,0003.12,0000.90,0000.66,0000.46,0001.91,0001.71,0000.94,21.4,27.0,05.1,03.6,0673.2,31.3
2021-08-03T14:43:00Z,00000200,00000000,0008.36,0005.09,0002.31,0000.88,0000.77,0000.19,0001.54,0001.01,0001.05,21.4,27.0,05.1,03.6,0673.2,31.3
2021-08-03T14:44:00Z,00000200,00000000,0007.34,0005.11,0002.93,0001.40,0000.67,0000.25,0001.54,0001.27,0000.77,21.4,27.0,05.1,03.6,0673.2,31.3
2021-08-03T14:45:00Z,00000200,00000000,0007.63,0004.94,0002.64,0000.96,0000.56,0000.47,0001.40,0001.27,0001.33,21.4,27.0,05.1,03.6,0673.1,31.3
2021-08-03T14:46:00Z,00000200,00000000,0006.53,0004.83,0002.88,0001.24,0000.66,0000.19,0001.19,0001.11,0000.81,21.4,27.1,05.1,03.7,0673.1,31.3
2021-08-03T14:47:00Z,00000200,00000000,0006.83,0005.09,0002.69,0000.47,0000.60,0000.31,0001.52,0001.89,0001.15,21.4,27.1,05.0,03.6,0673.1,31.3
2021-08-03T14:48:00Z,00000200,00000000,0006.88,0004.93,0002.69,0001.04,0000.84,0000.30,0001.78,0001.15,0001.04,21.4,27.1,04.9,03.5,0673.1,31.3
2021-08-03T14:49:00Z,00000200,00000000,0006.28,0004.60,0002.55,0000.35,0000.68,0000.47,0001.25,0001.33,0001.16,21.4,27.1,05.1,03.6,0673.1,31.3
2021-08-03T14:50:00Z,00000200,00000000,0007.06,0004.55,0002.70,0000.90,0000.84,0000.48,0001.59,0001.53,0001.02,21.4,27.1,05.0,03.6,0673.1,31.3
2021-08-03T14:51:00Z,00000200,00000000,0006.62,0004.50,0002.71,0000.54,0000.46,0000.66,0001.62,0001.53,0001.14,21.5,27.1,05.1,03.7,0673.1,31.3
2021-08-03T14:52:00Z,00000200,00000000,0007.01,0004.37,0002.64,0001.08,0000.51,0000.35,0001.32,0001.17,0001.26,21.5,27.1,05.2,03.7,0673.1,31.3
2021-08-03T14:53:00Z,00000200,00000000,0006.98,0004.66,0002.69,0000.92,0000.72,0000.47,0001.38,0001.35,0000.66,21.5,27.1,05.3,03.8,0673.1,31.3
2021-08-03T14:54:00Z,00000200,00000000,0005.62,0004.72,0002.33,0001.05,0000.37,0000.62,0001.51,0001.19,0000.92,21.5,27.1,05.3,03.8,0673.1,31.3
2021-08-03T14:55:00Z,00000200,00000000,0006.23,0004.74,0002.91,0000.96,0000.41,0000.32,0001.34,0001.12,0001.07,21.5,27.1,05.4,03.8,0673.1,31.3
2021-08-03T14:56:00Z,00000200,00000000,0006.60,0004.45,0002.72,0000.58,0000.57,0000.35,0001.49,0001.27,0001.06,21.5,27.1,05.4,03.8,0673.1,31.3
2021-08-03T14:57:00Z,00000200,40000000,,,,,,,-000.20,0000.29,0000.03,21.5,27.2,05.8,04.1,0673.2,31.3
2021-08-03T14:58:00Z,00000200,60000000,,,,,,,0000.56,0000.18,-000.11,21.4,27.2,05.0,03.5,0672.1,31.4
2021-08-03T14:59:00Z,00000200,20000000,,,,,,,-000.19,-000.24,0000.05,21.3,27.3,05.0,03.5,0672.1,31.4
